CDT,Max TemperatureF,Mean TemperatureF,Min TemperatureF,Max Dew PointF,MeanDew PointF,Min DewpointF,Max Humidity, Mean Humidity, Min Humidity, Max Sea Level PressureIn, Mean Sea Level PressureIn, Min Sea Level PressureIn, Max VisibilityMiles, Mean VisibilityMiles, Min VisibilityMiles, Max Wind SpeedMPH, Mean Wind SpeedMPH, Max Gust SpeedMPH,PrecipitationIn, CloudCover, Events, WindDirDegrees
2013-5-1,60,49,38,48,41,30,93,70,47,30.39,30.16,29.95,10,10,5,21,10,29,0.02,5,Rain-Thunderstorm,339
2013-5-2,38,35,31,32,30,27,85,80,75,30.42,30.36,30.29,10,9,2,21,11,29,0.06,8,Rain,1
2013-5-3,41,37,32,39,33,28,93,88,82,30.32,30.17,30.07,10,9,5,14,7,30,0.37,8,Rain,10
2013-5-4,75,58,40,48,41,38,92,60,27,30.12,30.09,30.04,10,10,8,16,6,25,0.00,2,,43
2013-5-5,73,59,45,45,40,33,92,59,25,30.12,30.08,30.04,10,10,10,12,3,15,0.00,0,,69
2013-5-6,77,60,42,43,39,33,89,56,23,30.11,30.06,30.01,10,10,10,12,2,18,0.00,0,,255
2013-5-7,79,63,46,44,36,27,86,51,15,30.08,30.03,29.99,10,10,10,13,4,16,0.00,1,,149
2013-5-8,80,64,48,44,40,35,80,50,20,30.03,29.99,29.95,10,10,10,9,3,18,0.00,2,,81
2013-5-9,62,51,40,52,45,38,93,72,51,30.06,29.99,29.93,10,9,4,15,5,23,0.52,6,Rain,25
2013-5-10,64,51,38,39,33,24,92,58,23,30.06,29.99,29.90,10,10,10,13,6,18,0.00,3,,340
2013-5-11,49,42,35,43,31,21,92,63,34,30.05,29.91,29.79,10,10,7,29,14,38,0.04,6,Rain,321
2013-5-12,53,43,33,25,20,15,69,47,24,30.15,30.10,30.06,10,10,10,18,10,31,0.00,4,,327
2013-5-13,59,44,28,33,24,18,78,51,24,30.19,30.07,29.85,10,10,10,15,5,21,T,2,Rain,173
2013-5-14,79,61,43,52,42,34,70,49,27,29.81,29.66,29.48,10,10,10,18,7,24,T,1,,131
2013-5-15,77,68,58,46,41,34,60,41,21,29.84,29.75,29.53,10,10,10,18,11,25,0.00,0,,289
2013-5-16,79,64,49,47,42,35,83,52,21,30.04,29.92,29.85,10,10,10,17,5,23,0.00,2,,49
2013-5-17,60,54,47,52,45,35,89,70,50,30.13,30.10,30.02,10,9,4,16,9,21,0.06,6,Rain,111
2013-5-18,76,64,51,61,54,46,93,76,58,30.11,30.02,29.92,10,10,6,17,8,22,T,4,,134
2013-5-19,82,70,58,62,60,57,93,72,51,29.94,29.82,29.67,10,7,2,21,10,26,T,2,Rain,129
2013-5-20,81,72,62,63,58,53,87,63,39,29.78,29.66,29.58,10,9,2,17,11,33,0.26,3,Rain-Thunderstorm,164
2013-5-21,74,67,60,63,58,54,97,77,57,29.70,29.60,29.55,10,9,1,25,8,32,0.94,7,Rain-Thunderstorm,204
2013-5-22,63,56,49,58,54,48,93,89,84,29.90,29.73,29.68,10,8,4,14,6,22,0.96,8,Rain,21
2013-5-23,60,50,40,48,36,27,93,61,28,30.35,30.11,29.88,10,10,7,18,10,28,0.01,4,Rain,11
2013-5-24,65,50,35,38,32,28,92,61,30,30.47,30.38,30.30,10,10,10,10,3,15,0.00,0,,172
2013-5-25,66,55,43,40,37,33,89,60,31,30.41,30.35,30.30,10,10,10,16,7,22,0.00,3,,133
2013-5-26,66,54,41,42,37,32,76,54,31,30.34,30.27,30.19,10,10,10,17,9,22,0.00,1,,103
2013-5-27,64,56,48,48,42,34,83,66,48,30.17,30.04,29.94,10,10,10,28,11,36,0.03,7,Rain,112
2013-5-28,56,53,50,55,51,46,100,93,86,29.92,29.80,29.73,10,6,1,12,6,20,0.07,8,Rain,110
2013-5-29,83,70,56,64,58,55,100,74,47,29.89,29.83,29.77,10,5,1,21,5,26,0.85,7,Rain-Thunderstorm,209
2013-5-30,83,73,62,68,65,61,93,74,55,29.84,29.74,29.67,10,8,1,31,11,39,0.56,5,Rain-Thunderstorm,153
2013-5-31,79,71,63,61,58,54,90,68,45,29.71,29.68,29.62,10,10,10,22,12,28,0.00,5,,186